Location: *
(50.3194°N, 7.1067°E)
Time: 00:59:51
(UTC+00:00)

Cosmos 1959 Rocket - Pass Details

Date: 22 September 2019
Orbit: 947 x 997 km, 82.9° (Epoch: 22 October)

Event Time Altitude Azimuth Distance (km) Brightness Sun altitude
Rises 19:03:21 0° 351° (N) 3,635 7.9 -15.4°
Reaches altitude 10° 19:05:51 10° 353° (N) 2,688 7.2 -15.7°
Maximum altitude 19:12:00 77° 79° (E) 986 4.4 -16.6°
Drops below altitude 10° 19:18:10 10° 166° (SSE) 2,696 6.5 -17.6°
Enters shadow 19:18:28 - 166° (SSE) 2,807 6.6 -17.6°
